When you browse on this site, cookies collect data to enhance your experience and personalize the content and advertising you see.
Visit our Privacy Policy to learn more. By continuing to use the site, you agree to this use of cookies and data.
  • In Spain
  • List of Countries
  • For 7 days
  • Water Temperature
  • Weather Map
  • Weather Widgets
  • user-avatar
    Login

    Hourly Weather San Miguel de Tucumán

    Today, 23 October, Wednesday

    Time Temperature Precipitation Wind Pressure Humidity
    00:00 +21°C° 0 mm 1 mps 719 mmHg 50%
    01:00 +20°C° 0 mm 1 mps 719 mmHg 52%
    02:00 +19°C° 0 mm 1 mps 719 mmHg 54%
    03:00 +19°C° 0 mm 1 mps 719 mmHg 57%
    04:00 +18°C° 0 mm 1 mps 719 mmHg 61%
    05:00 +16°C° 0 mm 1 mps 719 mmHg 64%
    06:00 +19°C° 0 mm 1 mps 720 mmHg 59%
    07:00 +21°C° 0 mm 1 mps 721 mmHg 54%
    08:00 +23°C° 0 mm 2 mps 721 mmHg 49%
    09:00 +25°C° 0 mm 2 mps 721 mmHg 44%
    10:00 +27°C° 0 mm 2 mps 721 mmHg 39%
    11:00 +28°C° 0 mm 2 mps 721 mmHg 34%
    12:00 +29°C° 0 mm 2 mps 720 mmHg 33%
    13:00 +30°C° 0 mm 2 mps 720 mmHg 31%
    14:00 +31°C° 0 mm 2 mps 719 mmHg 29%
    15:00 +31°C° 0 mm 2 mps 718 mmHg 30%
    16:00 +31°C° 0 mm 2 mps 718 mmHg 30%
    17:00 +31°C° 0 mm 2 mps 717 mmHg 30%
    18:00 +29°C° 0 mm 2 mps 718 mmHg 34%
    19:00 +27°C° 0 mm 2 mps 718 mmHg 38%
    20:00 +25°C° 0 mm 1 mps 719 mmHg 42%
    21:00 +25°C° 0 mm 2 mps 719 mmHg 44%
    22:00 +24°C° 0 mm 2 mps 719 mmHg 46%
    23:00 +23°C° 0 mm 2 mps 719 mmHg 48%

    Tomorrow, 24 October, Thursday

    Time Temperature Precipitation Wind Pressure Humidity
    00:00 +21°C° 0 mm 2 mps 719 mmHg 50%
    01:00 +21°C° 0 mm 1 mps 719 mmHg 53%
    02:00 +21°C° 0 mm 1 mps 718 mmHg 55%
    03:00 +20°C° 0 mm 1 mps 718 mmHg 56%
    04:00 +20°C° 0 mm 1 mps 718 mmHg 58%
    05:00 +19°C° 0 mm 1 mps 718 mmHg 60%
    06:00 +21°C° 0 mm 1 mps 719 mmHg 54%
    07:00 +23°C° 0 mm 1 mps 719 mmHg 48%
    08:00 +25°C° 0 mm 1 mps 719 mmHg 43%
    09:00 +28°C° 0 mm 1 mps 719 mmHg 37%
    10:00 +30°C° 0 mm 2 mps 719 mmHg 32%
    11:00 +34°C° 0 mm 2 mps 719 mmHg 27%
    12:00 +35°C° 0 mm 2 mps 718 mmHg 25%
    13:00 +36°C° 0 mm 2 mps 717 mmHg 23%
    14:00 +37°C° 0 mm 3 mps 717 mmHg 22%
    15:00 +36°C° 0 mm 3 mps 716 mmHg 22%
    16:00 +36°C° 0 mm 3 mps 716 mmHg 23%
    17:00 +35°C° 0 mm 3 mps 716 mmHg 23%
    18:00 +33°C° 0 mm 3 mps 716 mmHg 28%
    19:00 +30°C° 0 mm 3 mps 717 mmHg 32%
    20:00 +27°C° 0 mm 3 mps 717 mmHg 37%
    21:00 +27°C° 0 mm 2 mps 718 mmHg 38%
    22:00 +26°C° 0 mm 2 mps 718 mmHg 39%
    23:00 +25°C° 0 mm 2 mps 718 mmHg 41%

    Day after tomorrow, 25 October, Friday

    Time Temperature Precipitation Wind Pressure Humidity
    00:00 +24°C° 0 mm 2 mps 718 mmHg 43%
    01:00 +24°C° 0 mm 1 mps 718 mmHg 45%
    02:00 +23°C° 0 mm 1 mps 718 mmHg 47%
    03:00 +22°C° 0 mm 1 mps 718 mmHg 48%
    04:00 +22°C° 0 mm 1 mps 718 mmHg 50%
    05:00 +21°C° 0 mm 1 mps 719 mmHg 52%
    06:00 +23°C° 0 mm 1 mps 719 mmHg 48%
    07:00 +25°C° 0 mm 1 mps 720 mmHg 44%
    08:00 +27°C° 0 mm 2 mps 720 mmHg 40%
    09:00 +29°C° 0 mm 2 mps 720 mmHg 36%
    10:00 +31°C° 0 mm 2 mps 720 mmHg 32%
    11:00 +34°C° 0 mm 2 mps 720 mmHg 28%
    12:00 +35°C° 0 mm 2 mps 719 mmHg 26%
    13:00 +37°C° 0 mm 2 mps 719 mmHg 24%
    14:00 +38°C° 0 mm 3 mps 718 mmHg 22%
    15:00 +37°C° 0 mm 3 mps 717 mmHg 23%
    16:00 +37°C° 0 mm 3 mps 717 mmHg 24%
    17:00 +37°C° 0 mm 3 mps 716 mmHg 24%
    18:00 +35°C° 0 mm 3 mps 717 mmHg 28%
    19:00 +33°C° 0 mm 4 mps 717 mmHg 31%
    20:00 +32°C° 0 mm 4 mps 717 mmHg 34%
    21:00 +29°C° 0 mm 4 mps 717 mmHg 38%
    22:00 +28°C° 0 mm 3 mps 717 mmHg 42%
    23:00 +27°C° 0 mm 3 mps 717 mmHg 45%

    26 October, Saturday

    Time Temperature Precipitation Wind Pressure Humidity
    00:00 +27°C° 0 mm 3 mps 717 mmHg 47%
    01:00 +26°C° 0 mm 2 mps 716 mmHg 49%
    02:00 +26°C° 0 mm 2 mps 716 mmHg 51%
    03:00 +25°C° 0 mm 1 mps 716 mmHg 53%
    04:00 +24°C° 0 mm 1 mps 715 mmHg 55%
    05:00 +23°C° 0 mm 1 mps 715 mmHg 57%
    06:00 +25°C° 0 mm 1 mps 715 mmHg 51%
    07:00 +28°C° 0 mm 2 mps 715 mmHg 46%
    08:00 +30°C° 0 mm 2 mps 715 mmHg 40%
    09:00 +32°C° 0 mm 2 mps 715 mmHg 36%
    10:00 +35°C° 0 mm 3 mps 714 mmHg 32%
    11:00 +38°C° 0 mm 4 mps 713 mmHg 29%
    12:00 +39°C° 0 mm 3 mps 713 mmHg 26%
    13:00 +42°C° 0 mm 3 mps 712 mmHg 24%
    14:00 +43°C° 0 mm 3 mps 711 mmHg 22%
    15:00 +43°C° 0 mm 3 mps 710 mmHg 22%
    16:00 +42°C° 0 mm 3 mps 709 mmHg 23%
    17:00 +42°C° 0 mm 3 mps 709 mmHg 23%
    18:00 +38°C° 0 mm 3 mps 709 mmHg 28%
    19:00 +36°C° 0 mm 2 mps 710 mmHg 33%
    20:00 +32°C° 0 mm 2 mps 710 mmHg 38%
    21:00 +32°C° 0 mm 2 mps 711 mmHg 40%
    22:00 +31°C° 0 mm 2 mps 711 mmHg 41%
    23:00 +30°C° 0 mm 2 mps 711 mmHg 42%

    27 October, Sunday

    Time Temperature Precipitation Wind Pressure Humidity
    00:00 +30°C° 0 mm 2 mps 710 mmHg 42%
    01:00 +29°C° 0 mm 1 mps 710 mmHg 43%
    02:00 +29°C° 0 mm 1 mps 710 mmHg 43%
    03:00 +28°C° 0 mm 1 mps 710 mmHg 42%
    04:00 +28°C° 0 mm 1 mps 710 mmHg 42%
    05:00 +27°C° 0 mm 2 mps 710 mmHg 41%
    06:00 +29°C° 0 mm 2 mps 711 mmHg 37%
    07:00 +31°C° 0 mm 3 mps 712 mmHg 34%
    08:00 +34°C° 0 mm 4 mps 713 mmHg 30%
    09:00 +35°C° 0 mm 5 mps 713 mmHg 30%
    10:00 +35°C° 0 mm 5 mps 713 mmHg 31%
    11:00 +36°C° 0 mm 6 mps 714 mmHg 31%
    12:00 +36°C° 0 mm 5 mps 713 mmHg 32%
    13:00 +36°C° 0 mm 5 mps 713 mmHg 33%
    14:00 +37°C° 0 mm 5 mps 713 mmHg 33%
    15:00 +36°C° 0 mm 5 mps 713 mmHg 36%
    16:00 +35°C° 0 mm 4 mps 712 mmHg 39%
    17:00 +34°C° 0 mm 4 mps 712 mmHg 41%
    18:00 +30°C° 0 mm 3 mps 713 mmHg 48%
    19:00 +28°C° 0 mm 2 mps 713 mmHg 54%
    20:00 +26°C° 0 mm 2 mps 714 mmHg 60%
    21:00 +25°C° 0 mm 1 mps 714 mmHg 63%
    22:00 +24°C° 0 mm 1 mps 715 mmHg 67%
    23:00 +24°C° 0 mm 1 mps 715 mmHg 70%

    28 October, Monday

    Time Temperature Precipitation Wind Pressure Humidity
    00:00 +23°C° 0 mm 1 mps 715 mmHg 74%
    01:00 +22°C° 0 mm 1 mps 714 mmHg 79%
    02:00 +21°C° 0 mm 1 mps 714 mmHg 84%
    03:00 +21°C° 0 mm 1 mps 714 mmHg 84%
    04:00 +21°C° 0 mm 1 mps 714 mmHg 84%
    05:00 +21°C° 0 mm 1 mps 714 mmHg 84%
    06:00 +22°C° 0 mm 1 mps 714 mmHg 81%
    07:00 +22°C° 0 mm 1 mps 714 mmHg 78%
    08:00 +23°C° 0 mm 1 mps 714 mmHg 75%
    09:00 +25°C° 0 mm 1 mps 714 mmHg 68%
    10:00 +27°C° 0 mm 1 mps 714 mmHg 60%
    11:00 +29°C° 0 mm 2 mps 714 mmHg 53%
    12:00 +30°C° 0 mm 2 mps 713 mmHg 50%
    13:00 +31°C° 0 mm 2 mps 712 mmHg 48%
    14:00 +33°C° 0 mm 3 mps 711 mmHg 45%
    15:00 +33°C° 0 mm 3 mps 710 mmHg 47%
    16:00 +31°C° 0 mm 3 mps 709 mmHg 48%
    17:00 +31°C° 0 mm 3 mps 709 mmHg 50%
    18:00 +29°C° 0 mm 3 mps 709 mmHg 59%
    19:00 +27°C° 0 mm 2 mps 709 mmHg 67%
    20:00 +25°C° 0 mm 1 mps 710 mmHg 75%
    21:00 +25°C° 0 mm 1 mps 710 mmHg 76%
    22:00 +24°C° 0 mm 1 mps 710 mmHg 76%
    23:00 +24°C° 0 mm 1 mps 710 mmHg 76%

    29 October, Tuesday

    Time Temperature Precipitation Wind Pressure Humidity
    00:00 +24°C° 0 mm 1 mps 710 mmHg 74%
    01:00 +24°C° 0 mm 1 mps 710 mmHg 71%
    02:00 +24°C° 0 mm 1 mps 710 mmHg 69%
    03:00 +23°C° 0 mm 1 mps 711 mmHg 71%
    04:00 +23°C° 0 mm 1 mps 712 mmHg 73%
    05:00 +22°C° 0 mm 1 mps 712 mmHg 76%
    06:00 +23°C° 0 mm 2 mps 713 mmHg 75%
    07:00 +24°C° 0 mm 2 mps 715 mmHg 74%
    08:00 +25°C° 0 mm 2 mps 716 mmHg 73%
    09:00 +25°C° 0.2 mm 3 mps 716 mmHg 74%
    10:00 +25°C° 0.2 mm 3 mps 716 mmHg 75%
    11:00 +25°C° 0.2 mm 3 mps 716 mmHg 75%
    12:00 +25°C° 0.4 mm 3 mps 716 mmHg 76%
    13:00 +24°C° 0.4 mm 2 mps 715 mmHg 77%
    14:00 +23°C° 0.4 mm 2 mps 714 mmHg 77%
    15:00 +23°C° 0.1 mm 2 mps 714 mmHg 76%
    16:00 +23°C° 0.1 mm 2 mps 714 mmHg 74%
    17:00 +23°C° 0.1 mm 2 mps 713 mmHg 72%
    18:00 +23°C° 0 mm 2 mps 714 mmHg 73%
    19:00 +22°C° 0 mm 1 mps 714 mmHg 74%
    20:00 +22°C° 0 mm 1 mps 715 mmHg 75%
    21:00 +22°C° 0 mm 1 mps 715 mmHg 74%
    22:00 +19°C° 0 mm 0 mps 716 mmHg 73%
    23:00 +19°C° 0 mm 0 mps 716 mmHg 72%
    Show more